Location: Albuquerque Trailhead
(34.7934°N, 106.3736°W)
Time: 15:18:13
(UTC+00:00)

Cosmos 2315 Rocket - Pass Details

Date: 20 June 2021
Orbit: 966 x 1002 km, 82.9° (Epoch: 26 July)

Event Time Altitude Azimuth Distance (km) Brightness Sun altitude
Rises 10:42:07 0° 351° (N) 3,660 7.5 -12.6°
Reaches altitude 10° 10:44:38 10° 349° (N) 2,710 6.7 -12.2°
Maximum altitude 10:50:48 73° 266° (W) 1,011 4.0 -11.3°
Drops below altitude 10° 10:56:57 10° 183° (S) 2,703 5.9 -10.3°
Sets 10:59:27 0° 181° (S) 3,650 6.6 -9.9°
